Location: Devore Heights
(34.2372°N, 117.4156°W)
Time: 08:19:18
(UTC+00:00)

Altair - Pass Details

Date: 22 September 2024
Orbit: 1501 x 1682 km, 47.2° (Epoch: 07 October)

Event Time Altitude Azimuth Distance (km) Brightness Sun altitude
Rises 06:30:15 0° 206° (SSW) 4,724 - -51.7°
Reaches altitude 10° 06:33:27 10° 200° (SSW) 3,767 - -52.1°
Maximum altitude 06:42:22 45° 131° (SE) 2,106 - -52.9°
Drops below altitude 10° 06:51:37 10° 64° (ENE) 3,907 - -53.7°
Exits shadow 06:53:55 - 60° (ENE) 4,593 10.1 -53.9°
Sets 06:54:59 0° 58° (ENE) 4,914 10.2 -53.9°
